PEGASUS DEB

Satellite information

Favourite Embed

Satellite Type and Status

DEBRISIN ORBIT

Key statistics

Satellite PEGASUS DEB at a glance.

Uptime

11373

Days in orbit

Revolutions

≈ 15.1

Per day

Orbit

LEO

Low Earth Orbit

Inclination

82.2

Latest

Satellite identification and parameters

Extended collection of information and parameters for PEGASUS DEB.

Object identification

Identified? True

Debris? True

Object name: PEGASUS DEB

International designator: 1994-029HQ

Object number (NORAD): 24165

Object ID (CCSDS): 24165

Country: UNITED STATES OF AMERICA (US)

Current information (Y/N): Y

RCS size: SMALL

Orbital parameters

Period: 95.586 minutes

Inclination: 82.1572 deg

SMA: 6925.05 km

Apoapsis: 620.956 km

Periapsis: 472.875 km

RAAN: 129.3841 deg

Eccentricy: 0.0106917

Argument of periapsis: 80.646 deg

Mean anomaly: 280.6836 deg

Mean motion: 15.06497352 rev/day

Mean motion (dot): 0.00040743 rev/day2

B* drag term: 0.0024099 1/REarth

Two-line elements (TLE)

Creation date: July 8, 2025, 2:27 a.m.

Reference frame: TEME

Reference center: EARTH

Epoch: July 7, 2025, 9:51 p.m. UTC

TLE line 0: 0 PEGASUS DEB

TLE line 1: 1 24165U 94029HQ 25188.91079892 .00040743 00000-0 24099-2 0 9995

TLE line 2: 2 24165 82.1572 129.3841 0106917 80.6460 280.6836 15.06497352508751

Live tracking on map

Real-time ground track for satellite PEGASUS DEB.

In-orbit conjunctions

A list of the most updated potential collisions computed for object PEGASUS DEB.

Target Orbit TCA Probability of collision Miss distance Type
ELECTRON KICK STAGE R/B SSO 2025-06-02 12:43:34 0.0001971139 268.0 (m) ROCKET BODY
ERS 1 DEB SSO 2024-09-11 02:44:20 0.0003349889 45.0 (m) DEBRIS

Associated space launch

PEGASUS DEB was lifted into orbit during the mission ‘Pegasus HAPS | Space Test Experiments Platform 2 (STEP-2)’, on board a Pegasus HAPS space rocket.

The launch took place on May 19, 1994, 5:03 p.m. from Edwards Air Force Base.

For more information about the launch, click the button.

Launch to space Pegasus HAPS | Space Test Experiments Platform 2 (STEP-2)
Pegasus HAPS | Space Test Experiments Platform 2 (STEP-2)

Agency: N/A

Status: Launch Successful

Launch date: May 19, 1994, 5:03 p.m. UTC

Rocket: Pegasus HAPS

Launch pad: Edwards Air Force Base

Location: Air launch to orbit

...

Latest news about this satellite

There are no fresh news available about this satellite. Check back as we update our databases every day.


Newsletter sign-up

Weekly statistics, charts and insights to help you stay on top of the space industry.